Zurück zum Katalog

SL-3 DEB

AktivPO
NORAD 9664·DEBRIS·🇷🇺 Russia

Gestartet Jan 6, 1977 von Plesetsk Cosmodrome

Loading…

Nächste Überflüge (nächste 24 Stunden)

TLE

AktuellSource: Space-Track

Epoche: Sep 14, 2026, 15:21 UTC

1 09664U 77002D   26257.64026534  .00000110  00000-0  63542-4 0  9999
2 09664  81.2666  37.9001 0009012 168.5993 191.5380 14.02237294541167

Verfolge SL-3 DEB in Echtzeit mit AllMySat

Download on the App Store